time_stamp(utc),avg(mph),gust(mph),direction(deg),12m_air_temp(f),sonic_u(cm/s),sonic_v(cm/s),sonic_w(cm/s),pressure,2m_air_temp(f),pyranometer(W/m^2)
"2017-11-06 00:02:42+00",5.5,6.5,,60.9,125,-187,4,1018.06,59.9,0
"2017-11-06 00:07:42+00",5.6,6.6,,60.9,131,-194,-4,1017.93,60.1,0
"2017-11-06 00:12:42+00",5.7,5.7,,61,117,-210,-6,1017.69,60.3,0
"2017-11-06 00:17:42+00",5.1,6.1,,61.1,87,-191,0,1017.71,60.3,0
"2017-11-06 00:22:42+00",4.5,5.5,,61.1,70,-176,-4,1017.8,60.3,0
"2017-11-06 00:27:42+00",3.8,3.8,,61.2,39,-148,0,1017.92,60.4,0
"2017-11-06 00:32:42+00",2.6,3.6,,61.2,16,-103,-2,1017.9,60.4,0
"2017-11-06 00:37:42+00",2.8,2.8,,61.2,20,-107,-1,1017.89,60.4,0
"2017-11-06 00:42:42+00",3.1,4.1,,61.3,-26,-119,-1,1018.08,60.4,0
"2017-11-06 00:47:42+00",3.5,4.5,,61.3,-101,-109,3,1018.14,60.3,0
"2017-11-06 00:52:42+00",3.0,3.0,,61.2,-45,-112,2,1017.8,60.1,0
"2017-11-06 00:57:42+00",3.6,3.6,,61.1,-52,-136,1,1017.65,60.1,0
"2017-11-06 01:02:42+00",3.8,3.8,,61.1,-113,-128,5,1017.74,59.9,0
"2017-11-06 01:07:42+00",4.8,5.8,,61,-23,-197,3,1017.72,59.8,0
"2017-11-06 01:12:42+00",4.4,5.4,,61,-72,-168,1,1017.95,60.1,0
"2017-11-06 01:17:42+00",4.3,4.3,,60.9,-129,-144,5,1018.13,59.9,0
"2017-11-06 01:22:42+00",4.0,4.0,,60.8,-54,-152,-1,1018.1,59.7,0
"2017-11-06 01:27:42+00",3.6,4.6,,60.7,-11,-146,0,1017.99,59.8,0
"2017-11-06 01:32:42+00",3.6,3.6,,60.7,11,-144,-5,1017.86,59.7,0
"2017-11-06 01:37:42+00",3.6,3.6,,60.7,45,-139,-6,1017.74,59.7,0
"2017-11-06 01:42:42+00",2.7,3.7,,60.7,-4,-104,-3,1017.92,59.7,0
"2017-11-06 01:47:42+00",2.5,2.5,,60.7,-39,-91,1,1017.99,59.8,0
"2017-11-06 01:52:42+00",1.8,1.8,,60.6,-11,-68,0,1017.81,59.8,0
"2017-11-06 01:57:42+00",3.0,3.0,,60.7,-56,-110,0,1017.93,59.8,0
"2017-11-06 02:02:42+00",4.1,4.1,,60.8,2,-167,-3,1017.72,59.9,0
"2017-11-06 02:07:42+00",4.9,4.9,,60.8,-4,-198,-5,1017.65,60.1,0
"2017-11-06 02:12:42+00",5.7,5.7,,60.8,19,-235,-9,1017.65,60,0
"2017-11-06 02:17:42+00",5.8,6.8,,60.9,-12,-244,-8,1017.73,60.3,0
"2017-11-06 02:22:42+00",6.2,7.2,,61,22,-263,-7,1017.79,60.5,0
"2017-11-06 02:27:42+00",6.6,7.6,,61,2,-268,-5,1017.76,60.6,0
"2017-11-06 02:32:42+00",5.3,7.3,,61,-46,-213,-3,1017.79,60.6,0
"2017-11-06 02:37:42+00",5.8,7.8,,60.9,-63,-237,0,1017.71,60.6,0
"2017-11-06 02:42:42+00",5.8,7.8,,60.8,-75,-235,4,1017.68,60.5,0
"2017-11-06 02:47:42+00",7.8,8.8,,60.7,-157,-296,-3,1017.78,60.3,0
"2017-11-06 02:52:42+00",6.9,7.9,,60.7,-174,-249,0,1017.82,60.2,0
"2017-11-06 02:57:42+00",7.0,8.0,,60.7,-144,-266,0,1017.92,60.2,0
"2017-11-06 03:02:42+00",6.7,7.7,,60.7,-110,-257,-3,1017.77,60.2,0
"2017-11-06 03:07:42+00",5.9,6.9,,60.7,-145,-215,9,1017.71,60.2,0
"2017-11-06 03:12:42+00",6.8,7.8,,60.7,-125,-257,-6,1017.72,60.2,0
"2017-11-06 03:17:42+00",5.7,6.7,,60.6,-62,-233,7,1017.62,60.1,0
"2017-11-06 03:22:42+00",6.8,8.8,,60.5,-79,-274,4,1017.66,60,0
"2017-11-06 03:27:42+00",8.0,9.0,,60.6,-76,-322,-12,1017.44,60.1,0
"2017-11-06 03:32:42+00",8.1,9.1,,60.7,-68,-337,-16,1017.28,60.1,0
"2017-11-06 03:37:42+00",7.4,9.4,,60.7,-111,-299,4,1017.31,60.1,0
"2017-11-06 03:42:42+00",8.8,9.8,,60.8,-121,-351,1,1017.34,60.1,0
"2017-11-06 03:47:42+00",7.5,10.5,,60.8,-72,-322,-1,1017.28,60.2,0
"2017-11-06 03:52:42+00",8.3,10.3,,60.9,-109,-345,5,1017.31,60.3,0
"2017-11-06 03:57:42+00",11.5,13.5,,61.1,-181,-456,2,1017.23,60.6,0
"2017-11-06 04:02:42+00",10.4,13.4,,61.2,-226,-397,5,1017.31,60.7,0
"2017-11-06 04:07:42+00",12.9,14.9,,61.3,-267,-491,-8,1017.33,60.7,0
"2017-11-06 04:12:42+00",8.9,10.9,,61.3,-115,-365,9,1017.13,60.7,0
"2017-11-06 04:17:42+00",9.1,10.1,,61.2,-150,-364,-3,1017.05,60.6,0
"2017-11-06 04:22:42+00",9.4,11.4,,61.2,-172,-369,-3,1017.08,60.5,0
"2017-11-06 04:27:42+00",8.5,9.5,,61.2,-188,-323,-1,1017.29,60.5,0
"2017-11-06 04:32:42+00",8.3,10.3,,61.2,-160,-320,7,1017.34,60.5,0
"2017-11-06 04:37:42+00",7.5,9.5,,61.2,-107,-300,4,1017.19,60.5,0
"2017-11-06 04:42:42+00",8.3,10.3,,61.2,-109,-333,-4,1017.16,60.5,0
"2017-11-06 04:47:42+00",8.3,10.3,,61.2,-177,-317,-3,1017.1,60.6,0
"2017-11-06 04:52:42+00",7.6,8.6,,61.2,-169,-289,0,1017.03,60.6,0
"2017-11-06 04:57:42+00",7.5,9.5,,61.2,-108,-300,4,1016.99,60.6,0
"2017-11-06 05:02:42+00",7.8,9.8,,61.2,-84,-326,-5,1016.97,60.6,0
"2017-11-06 05:07:42+00",8.8,10.8,,61.3,-55,-360,-17,1016.9,60.8,0
"2017-11-06 05:12:42+00",8.6,11.6,,61.3,-90,-353,11,1016.84,60.8,0
"2017-11-06 05:17:42+00",9.4,11.4,,61.4,-97,-391,-19,1016.75,60.9,0
"2017-11-06 05:22:42+00",10.4,12.4,,61.4,-88,-438,-19,1016.67,60.9,0
"2017-11-06 05:27:42+00",9.0,12.0,,61.4,-94,-368,10,1016.71,60.9,0
"2017-11-06 05:32:42+00",10.8,13.8,,61.4,-114,-448,3,1016.64,60.9,0
"2017-11-06 05:37:42+00",8.9,9.9,,61.3,-102,-364,8,1016.49,60.9,0
"2017-11-06 05:42:42+00",10.3,12.3,,61.4,-141,-419,-4,1016.32,60.9,0
"2017-11-06 05:47:42+00",8.7,11.7,,61.4,-94,-346,6,1016.31,60.9,0
"2017-11-06 05:52:42+00",10.0,12.0,,61.4,-162,-397,4,1016.35,60.9,0
"2017-11-06 05:57:42+00",11.7,13.7,,61.5,-216,-460,-7,1016.28,61,0
"2017-11-06 06:02:42+00",11.3,13.3,,61.6,-216,-430,-8,1016.13,61.1,0
"2017-11-06 06:07:42+00",11.2,13.2,,61.6,-198,-437,-9,1016,61.2,0
"2017-11-06 06:12:42+00",10.7,12.7,,61.6,-169,-427,1,1015.95,61.1,0
"2017-11-06 06:17:42+00",10.1,12.1,,61.5,-159,-405,-5,1015.92,61.1,0
"2017-11-06 06:22:42+00",12.6,14.6,,61.6,-210,-504,-1,1015.95,61.1,0
"2017-11-06 06:27:42+00",12.0,15.0,,61.6,-222,-466,-9,1015.84,61.2,0
"2017-11-06 06:32:42+00",11.6,12.6,,61.6,-242,-447,0,1015.82,61.2,0
"2017-11-06 06:37:42+00",12.6,14.6,,61.6,-248,-485,-15,1015.72,61.1,0
"2017-11-06 06:42:42+00",11.8,13.8,,61.7,-284,-442,-3,1015.67,61.2,0
"2017-11-06 06:47:42+00",10.8,12.8,,61.6,-257,-410,4,1015.73,61.1,0
"2017-11-06 06:52:42+00",10.8,13.8,,61.7,-225,-412,-7,1015.77,61.1,0
"2017-11-06 06:57:42+00",10.7,11.7,,61.7,-210,-423,0,1015.92,61.2,0
"2017-11-06 07:02:42+00",10.5,12.5,,61.8,-274,-382,0,1015.88,61.3,0
"2017-11-06 07:07:42+00",10.3,14.3,,61.9,-263,-373,0,1015.95,61.4,0
"2017-11-06 07:12:42+00",9.3,10.3,,61.9,-265,-332,22,1016.03,61.4,0
"2017-11-06 07:17:42+00",9.5,11.5,,61.9,-264,-343,5,1016.04,61.5,0
"2017-11-06 07:22:42+00",10.5,12.5,,62,-257,-390,-1,1016.05,61.5,0
"2017-11-06 07:27:42+00",10.2,12.2,,62,-230,-391,3,1015.94,61.6,0
"2017-11-06 07:32:42+00",11.2,13.2,,62.1,-231,-428,-10,1015.83,61.6,0
"2017-11-06 07:37:42+00",11.8,14.8,,62.2,-232,-457,1,1015.71,61.7,0
"2017-11-06 07:42:42+00",11.9,14.9,,62.3,-187,-481,-3,1015.49,61.7,0
"2017-11-06 07:47:42+00",14.3,18.3,,62.4,-264,-557,3,1015.46,61.8,0
"2017-11-06 07:52:42+00",13.0,16.0,,62.5,-280,-496,-3,1015.62,61.9,0
"2017-11-06 07:57:42+00",14.7,17.7,,62.5,-276,-573,1,1015.4,61.9,0
"2017-11-06 08:02:42+00",12.5,14.5,,62.4,-202,-502,-2,1015.17,61.9,0
"2017-11-06 08:07:42+00",14.1,18.1,,62.5,-291,-542,1,1015.22,62,0
"2017-11-06 08:12:42+00",14.3,17.3,,62.6,-280,-550,-9,1015.22,62,0
"2017-11-06 08:17:42+00",12.5,16.5,,62.6,-176,-506,0,1015.08,62.1,0
"2017-11-06 08:22:42+00",14.4,17.4,,62.6,-220,-578,-5,1015.02,62.2,0
"2017-11-06 08:27:42+00",14.4,19.4,,62.8,-209,-588,1,1014.93,62.3,0
"2017-11-06 08:32:42+00",14.1,19.1,,62.8,-195,-579,-2,1014.69,62.3,0
"2017-11-06 08:37:42+00",15.4,18.4,,62.8,-226,-624,-21,1014.6,62.3,0
"2017-11-06 08:42:42+00",15.2,19.2,,62.8,-218,-606,-7,1014.65,62.2,0
"2017-11-06 08:47:42+00",13.2,19.2,,62.7,-211,-528,5,1014.57,62.1,0
"2017-11-06 08:52:42+00",17.0,20.0,,62.7,-282,-681,-17,1014.59,62.1,0
"2017-11-06 08:57:42+00",16.0,19.0,,62.8,-283,-635,1,1014.45,62.2,0
"2017-11-06 09:02:42+00",15.0,19.0,,62.7,-236,-605,-13,1014.45,62.3,0
"2017-11-06 09:07:42+00",14.7,19.7,,62.7,-232,-598,-4,1014.43,62.3,0
"2017-11-06 09:12:42+00",15.2,19.2,,62.8,-242,-609,-11,1014.56,62.3,0
"2017-11-06 09:17:42+00",14.1,17.1,,62.8,-217,-573,-19,1014.57,62.3,0
"2017-11-06 09:22:42+00",14.4,17.4,,62.8,-280,-569,18,1014.54,62.3,0
"2017-11-06 09:27:42+00",14.6,16.6,,62.8,-272,-566,-15,1014.7,62.3,0
"2017-11-06 09:32:42+00",14.6,17.6,,62.7,-286,-568,3,1014.68,62.2,0
"2017-11-06 09:37:42+00",13.5,16.5,,62.6,-289,-515,-4,1014.55,62.2,0
"2017-11-06 09:42:42+00",11.8,12.8,,62.6,-250,-460,11,1014.59,62.1,0
"2017-11-06 09:47:42+00",14.5,18.5,,62.7,-270,-562,-11,1014.53,62.1,0
"2017-11-06 09:52:42+00",13.7,16.7,,62.7,-251,-533,1,1014.54,62.2,0
"2017-11-06 09:57:42+00",13.0,16.0,,62.7,-211,-520,3,1014.46,62.1,0
"2017-11-06 10:02:42+00",15.1,19.1,,62.7,-323,-580,-1,1014.49,62.1,0
"2017-11-06 10:07:42+00",14.5,18.5,,62.7,-250,-573,-11,1014.28,62.1,0
"2017-11-06 10:12:42+00",15.0,18.0,,62.7,-298,-573,-12,1014.3,62.1,0
"2017-11-06 10:17:42+00",14.1,18.1,,62.7,-242,-564,-11,1014.23,62.1,0
"2017-11-06 10:22:42+00",14.5,16.5,,62.7,-246,-573,-2,1014.25,62.1,0
"2017-11-06 10:27:42+00",14.5,17.5,,62.6,-246,-575,-2,1014.12,62.1,0
"2017-11-06 10:32:42+00",13.6,17.6,,62.6,-279,-532,-1,1014.3,62.1,0
"2017-11-06 10:37:42+00",14.0,17.0,,62.6,-371,-515,6,1014.38,62.1,0
"2017-11-06 10:42:42+00",13.1,15.1,,62.7,-411,-429,15,1014.54,62.1,0
"2017-11-06 10:47:42+00",12.8,13.8,,62.7,-400,-419,20,1014.43,62.1,0
"2017-11-06 10:52:42+00",12.8,14.8,,62.6,-251,-500,-5,1014.14,62,0
"2017-11-06 10:57:42+00",12.4,14.4,,62.6,-265,-482,3,1014.1,62,0
"2017-11-06 11:02:42+00",13.1,16.1,,62.7,-206,-527,0,1013.92,62.1,0
"2017-11-06 11:07:42+00",13.8,15.8,,62.8,-249,-541,1,1013.93,62.2,0
"2017-11-06 11:12:42+00",15.3,18.3,,62.9,-238,-600,-9,1013.86,62.2,0
"2017-11-06 11:17:42+00",15.5,17.5,,63,-266,-610,-12,1013.67,62.4,0
"2017-11-06 11:22:42+00",17.0,19.0,,63.3,-412,-635,-4,1013.84,62.5,0
"2017-11-06 11:27:42+00",15.3,17.3,,63.3,-325,-587,7,1013.76,62.6,0
"2017-11-06 11:32:42+00",13.1,17.1,,63.4,-342,-494,28,1013.95,62.8,0
"2017-11-06 11:37:42+00",16.2,18.2,,63.5,-415,-600,-11,1013.87,62.9,0
"2017-11-06 11:42:42+00",16.0,20.0,,63.5,-432,-587,9,1013.93,63,0
"2017-11-06 11:47:42+00",18.0,22.0,,63.6,-386,-691,-8,1013.88,63.1,0
"2017-11-06 11:52:42+00",16.1,21.1,,63.5,-292,-631,4,1013.98,63,0
"2017-11-06 11:57:42+00",14.9,18.9,,63.5,-311,-576,5,1014.03,63.1,0
"2017-11-06 12:02:42+00",15.1,18.1,,63.4,-274,-589,-18,1014.06,63.1,0
"2017-11-06 12:07:42+00",16.8,20.8,,63.4,-240,-676,-3,1013.89,63.1,0
"2017-11-06 12:12:42+00",16.2,20.2,,63.4,-218,-658,-19,1013.98,63.1,0
"2017-11-06 12:17:42+00",17.0,21.0,,63.5,-254,-699,-9,1013.81,63.2,0.2
"2017-11-06 12:22:42+00",17.3,21.3,,63.5,-284,-698,2,1013.78,63.3,0
"2017-11-06 12:27:42+00",18.4,21.4,,63.7,-326,-732,-10,1013.65,63.4,12.3
"2017-11-06 12:32:42+00",18.2,21.2,,63.7,-337,-712,-14,1013.75,63.5,22.9
"2017-11-06 12:37:42+00",17.9,20.9,,63.7,-331,-704,0,1013.7,63.5,34.1
"2017-11-06 12:42:42+00",17.6,20.6,,63.7,-368,-675,-12,1013.77,63.7,56.6
"2017-11-06 12:47:42+00",16.9,20.9,,63.8,-332,-659,3,1013.69,63.8,18.5
"2017-11-06 12:52:42+00",15.3,17.3,,63.8,-331,-584,-5,1013.63,63.7,27.8
"2017-11-06 12:57:42+00",17.0,19.0,,63.9,-381,-643,-14,1013.57,63.8,29.9
"2017-11-06 13:02:42+00",14.0,17.0,,63.9,-347,-535,28,1013.65,63.9,41.7
"2017-11-06 13:07:42+00",16.6,19.6,,64.1,-360,-633,-3,1013.67,64.1,27.3
"2017-11-06 13:12:42+00",13.3,16.3,,64,-312,-510,21,1013.72,64,23.3
"2017-11-06 13:17:42+00",16.6,22.6,,64.1,-323,-647,1,1013.56,64.2,75.4
"2017-11-06 13:22:42+00",17.9,21.9,,64.3,-372,-693,-3,1013.59,64.3,24.4
"2017-11-06 13:27:42+00",16.7,19.7,,64.2,-454,-613,10,1013.76,64.2,10.1
"2017-11-06 13:32:42+00",18.1,20.1,,64.3,-478,-666,-3,1013.69,64.2,5.4
"2017-11-06 13:37:42+00",21.1,24.1,,64.4,-604,-755,22,1013.61,64.2,10.5
"2017-11-06 13:42:42+00",20.2,23.2,,64.4,-607,-681,14,1013.59,64.2,34.4
"2017-11-06 13:47:42+00",20.6,26.6,,64.4,-643,-678,38,1013.65,64.3,27.5
"2017-11-06 13:52:42+00",21.9,24.9,,64.4,-683,-710,15,1013.52,64.3,40.4
"2017-11-06 13:57:42+00",24.9,27.9,,64.3,-796,-813,19,1013.51,64.2,1.4
"2017-11-06 14:02:42+00",23.4,26.4,,64.1,-738,-730,14,1013.57,64.1,0.9
"2017-11-06 14:07:42+00",22.4,25.4,,64,-721,-704,24,1013.59,64,10.3
"2017-11-06 14:12:42+00",20.7,23.7,,63.9,-663,-646,27,1013.72,63.8,0
"2017-11-06 14:17:42+00",19.9,21.9,,63.8,-656,-571,33,1013.79,63.8,0.2
"2017-11-06 14:22:42+00",19.7,22.7,,63.7,-649,-568,26,1013.75,63.7,0
"2017-11-06 14:27:42+00",21.6,25.6,,63.7,-707,-597,22,1013.72,63.6,0.1
"2017-11-06 14:32:42+00",19.6,24.6,,63.6,-636,-577,20,1013.54,63.5,8
"2017-11-06 14:37:42+00",20.1,22.1,,63.6,-662,-562,24,1013.4,63.5,4.5
"2017-11-06 14:42:42+00",20.3,22.3,,63.5,-681,-563,16,1013.52,63.4,0.6
"2017-11-06 14:47:42+00",18.3,20.3,,63.5,-588,-557,3,1013.34,63.4,0.8
"2017-11-06 14:52:42+00",18.4,20.4,,63.4,-596,-553,22,1013.3,63.4,4
"2017-11-06 14:57:42+00",16.6,19.6,,63.4,-555,-462,38,1013.25,63.3,1.2
"2017-11-06 15:02:42+00",18.2,21.2,,63.6,-686,-428,38,1013.48,63.3,0.1
"2017-11-06 15:07:42+00",17.4,19.4,,63.7,-746,-373,32,1013.7,63.4,0
"2017-11-06 15:12:42+00",23.0,27.0,,63.9,-973,-244,44,1013.57,63.3,0.3
"2017-11-06 15:17:42+00",24.8,27.8,,64.5,-1084,-467,43,1013.56,63.5,0
"2017-11-06 15:22:42+00",21.3,23.3,,64.4,-889,-237,36,1013.59,63.7,0
"2017-11-06 15:27:42+00",24.7,28.7,,64.5,-1031,-290,37,1013.61,63.7,0.1
"2017-11-06 15:32:42+00",16.7,17.7,,64.3,-703,-223,35,1013.37,63.8,3.6
"2017-11-06 15:37:42+00",18.6,20.6,,64.4,-766,-212,36,1013.3,63.8,1.8
"2017-11-06 15:42:42+00",15.8,16.8,,64.1,-677,-206,40,1013.19,63.8,9.1
"2017-11-06 15:47:42+00",13.0,15.0,,64.1,-555,-191,38,1013.25,63.8,26
"2017-11-06 15:52:42+00",14.9,16.9,,64.2,-641,-101,20,1013.22,63.9,27.1
"2017-11-06 15:57:42+00",15.7,17.7,,64.2,-651,-166,38,1013.12,63.9,14.1
"2017-11-06 16:02:42+00",14.6,17.6,,64.1,-612,-147,28,1013.18,63.9,16.9
"2017-11-06 16:07:42+00",14.0,16.0,,64,-578,-144,27,1013.22,63.9,14.2
"2017-11-06 16:12:42+00",12.8,13.8,,63.9,-537,-114,24,1013.13,63.9,14.5
"2017-11-06 16:17:42+00",13.3,15.3,,63.8,-558,-156,22,1013.1,63.8,14.6
"2017-11-06 16:22:42+00",15.8,17.8,,64.1,-662,-159,35,1012.97,63.9,32.5
"2017-11-06 16:27:42+00",14.0,16.0,,64.2,-606,-285,28,1012.83,64.1,162.5
"2017-11-06 16:32:42+00",17.1,19.1,,64.4,-719,-212,22,1012.59,64.7,101.3
"2017-11-06 16:37:42+00",11.5,13.5,,64.4,-484,-160,49,1012.41,65,210.3
"2017-11-06 16:42:42+00",12.8,14.8,,64.4,-545,-228,30,1012.34,65.5,73
"2017-11-06 16:47:42+00",11.9,14.9,,64.3,-512,-230,27,1012.08,65.5,52
"2017-11-06 16:52:42+00",12.8,15.8,,64.2,-511,-284,4,1012.04,65.4,39.7
"2017-11-06 16:57:42+00",10.4,12.4,,64.1,-397,-242,13,1011.85,65.3,56.6
"2017-11-06 17:02:42+00",11.5,12.5,,64,-440,-263,16,1011.91,65.3,28.2
"2017-11-06 17:07:42+00",8.9,10.9,,64,-325,-211,-1,1011.98,65.3,33.9
"2017-11-06 17:12:42+00",9.1,10.1,,63.9,-394,-176,22,1011.92,65.2,13.5
"2017-11-06 17:17:42+00",10.2,11.2,,63.9,-449,-176,17,1012.03,64.9,13
"2017-11-06 17:22:42+00",11.2,13.2,,63.9,-460,-138,15,1011.96,64.7,22.6
"2017-11-06 17:27:42+00",13.4,15.4,,64.1,-559,-163,31,1011.8,64.6,58.4
"2017-11-06 17:32:42+00",14.3,16.3,,64.3,-607,-180,3,1011.7,64.7,94.1
"2017-11-06 17:37:42+00",12.3,14.3,,64.6,-516,-254,34,1011.54,65.3,236.5
"2017-11-06 17:42:42+00",12.2,14.2,,64.9,-520,-217,26,1011.35,66,119.5
"2017-11-06 17:47:42+00",11.3,13.3,,64.7,-464,-235,29,1011.33,66.2,120.2
"2017-11-06 17:52:42+00",11.2,12.2,,64.6,-444,-252,34,1011.51,66.6,185.5
"2017-11-06 17:57:42+00",15.1,18.1,,64.8,-570,-353,23,1011.42,66.9,120
"2017-11-06 18:02:42+00",11.9,14.9,,64.6,-458,-278,33,1011.45,66.9,114.6
"2017-11-06 18:07:42+00",15.1,17.1,,64.6,-599,-334,12,1011.63,66.8,108
"2017-11-06 18:12:42+00",12.9,15.9,,64.6,-547,-263,39,1011.82,66.7,77.9
"2017-11-06 18:17:42+00",12.7,14.7,,64.5,-509,-284,23,1011.78,66.5,75.5
"2017-11-06 18:22:42+00",12.3,14.3,,64.6,-493,-269,37,1011.86,66.3,62.6
"2017-11-06 18:27:42+00",12.0,14.0,,64.6,-485,-267,42,1011.97,66.1,83.1
"2017-11-06 18:32:42+00",14.0,17.0,,64.6,-546,-320,23,1012.02,66.1,86.9
"2017-11-06 18:37:42+00",13.2,16.2,,64.6,-507,-317,37,1012.07,66,71.2
"2017-11-06 18:42:42+00",12.2,14.2,,64.6,-424,-326,21,1011.96,65.9,38.7
"2017-11-06 18:47:42+00",13.4,14.4,,64.6,-465,-344,1,1011.93,65.7,19.5
"2017-11-06 18:52:42+00",9.4,10.4,,64.6,-321,-248,12,1011.75,65.6,29.2
"2017-11-06 18:57:42+00",9.6,11.6,,64.7,-357,-228,26,1012.08,65.5,44.1
"2017-11-06 19:02:42+00",7.4,8.4,,64.6,-316,-134,8,1011.97,65.6,34.8
"2017-11-06 19:07:42+00",7.6,8.6,,64.8,-308,-157,13,1011.73,65.6,21.6
"2017-11-06 19:12:42+00",8.1,9.1,,65,-345,-34,9,1011.75,65.6,17.1
"2017-11-06 19:17:42+00",9.1,12.1,,65.3,-393,42,18,1012.04,65.5,6.3
"2017-11-06 19:22:42+00",7.7,9.7,,65.3,-326,59,31,1011.86,65.4,12.1
"2017-11-06 19:27:42+00",7.7,8.7,,65,-333,56,13,1011.93,65.3,31.7
"2017-11-06 19:32:42+00",6.9,8.9,,65,-303,40,19,1011.96,65.3,37.7
"2017-11-06 19:37:42+00",7.9,8.9,,65.3,-336,43,25,1012.07,65.4,26.1
"2017-11-06 19:42:42+00",8.3,10.3,,65.5,-360,57,22,1012.06,65.7,225.2
"2017-11-06 19:47:42+00",10.6,11.6,,66.2,-456,105,20,1012.05,66.9,217.5
"2017-11-06 19:52:42+00",9.8,10.8,,66.6,-429,113,36,1012.02,67.9,157.2
"2017-11-06 19:57:42+00",8.7,9.7,,66.8,-383,77,34,1012.01,68.5,146.8
"2017-11-06 20:02:42+00",8.7,9.7,,66.6,-378,77,26,1011.98,68.4,11.8
"2017-11-06 20:07:42+00",8.1,9.1,,66.3,-361,24,28,1012,67.9,44.1
"2017-11-06 20:12:42+00",7.0,8.0,,66.3,-312,23,27,1012.08,67.6,18.2
"2017-11-06 20:17:42+00",7.4,8.4,,66.2,-323,41,12,1012.17,67.2,11.2
"2017-11-06 20:22:42+00",6.6,7.6,,65.9,-276,77,20,1012.19,66.9,0
"2017-11-06 20:27:42+00",7.3,8.3,,65.7,-313,91,17,1012.34,66.5,0
"2017-11-06 20:32:42+00",7.3,8.3,,66.1,-310,85,24,1012.46,66.2,0
"2017-11-06 20:37:42+00",7.3,8.3,,65.8,-314,89,17,1012.53,65.9,0
"2017-11-06 20:42:42+00",7.4,8.4,,65.5,-313,82,20,1012.58,65.6,0
"2017-11-06 20:47:42+00",7.4,8.4,,65.4,-294,120,18,1012.6,65.4,0
"2017-11-06 20:52:42+00",8.3,9.3,,65.3,-337,152,26,1012.72,65.2,0
"2017-11-06 20:57:42+00",8.5,9.5,,65.1,-358,131,24,1012.65,64.9,0
"2017-11-06 21:02:42+00",9.5,10.5,,65.2,-394,162,28,1012.71,64.8,0.1
"2017-11-06 21:07:42+00",9.5,10.5,,65.5,-399,155,27,1012.56,64.9,0.6
"2017-11-06 21:12:42+00",8.7,10.7,,65.4,-378,108,25,1012.6,64.9,0
"2017-11-06 21:17:42+00",8.8,9.8,,65.2,-375,99,21,1012.52,64.8,0
"2017-11-06 21:22:42+00",8.0,9.0,,65.3,-345,16,14,1012.5,64.7,0
"2017-11-06 21:27:42+00",7.1,8.1,,65.4,-307,-12,14,1012.64,64.6,0
"2017-11-06 21:32:42+00",6.9,7.9,,65.5,-304,-2,13,1012.72,64.5,0
"2017-11-06 21:37:42+00",7.3,8.3,,65.5,-316,-15,14,1012.62,64.4,0
"2017-11-06 21:42:42+00",7.4,8.4,,65.5,-303,-59,8,1012.65,64.4,0
"2017-11-06 21:47:42+00",6.4,7.4,,65.4,-261,-49,13,1012.69,64.4,0
"2017-11-06 21:52:42+00",6.5,7.5,,65.3,-261,-72,8,1012.75,64.3,0
"2017-11-06 21:57:42+00",6.1,7.1,,65.1,-252,-130,4,1012.73,64.1,0
"2017-11-06 22:02:42+00",6.0,7.0,,64.9,-258,-102,6,1012.94,64,0
"2017-11-06 22:07:42+00",7.0,7.0,,64.7,-282,-76,7,1013.05,63.8,0
"2017-11-06 22:12:42+00",7.1,7.1,,64.6,-291,-63,6,1013.12,63.6,0
"2017-11-06 22:17:42+00",7.8,8.8,,64.7,-325,-55,8,1013.27,63.5,0
"2017-11-06 22:22:42+00",8.0,9.0,,64.8,-342,-45,13,1013.36,63.4,0
"2017-11-06 22:27:42+00",7.1,8.1,,64.8,-305,-7,11,1013.35,63.4,0
"2017-11-06 22:32:42+00",7.2,8.2,,64.9,-318,-2,11,1013.39,63.4,0
"2017-11-06 22:37:42+00",8.2,9.2,,64.8,-361,32,20,1013.53,63.4,0
"2017-11-06 22:42:42+00",7.7,8.7,,64.5,-340,33,16,1013.55,63.3,0
"2017-11-06 22:47:42+00",7.5,7.5,,64.4,-330,27,16,1013.69,63.2,0
"2017-11-06 22:52:42+00",6.6,7.6,,64.3,-286,7,11,1013.78,63,0
"2017-11-06 22:57:42+00",6.5,7.5,,64.1,-289,15,7,1013.75,62.9,0
"2017-11-06 23:02:42+00",5.9,6.9,,64,-254,35,9,1013.84,62.7,0
"2017-11-06 23:07:42+00",5.5,6.5,,63.8,-231,33,4,1013.93,62.6,0
"2017-11-06 23:12:42+00",5.2,5.2,,63.6,-224,5,8,1013.99,62.3,0
"2017-11-06 23:17:42+00",6.5,7.5,,63.6,-283,4,12,1014.11,62.1,0
"2017-11-06 23:22:42+00",7.4,8.4,,63.5,-323,-3,13,1014.22,62,0
"2017-11-06 23:27:42+00",7.5,7.5,,63.3,-330,-4,14,1014.27,61.8,0
"2017-11-06 23:32:42+00",6.6,7.6,,63,-287,2,12,1014.36,61.7,0
"2017-11-06 23:37:42+00",6.5,7.5,,62.8,-284,46,13,1014.4,61.6,0
"2017-11-06 23:42:42+00",6.4,6.4,,62.5,-266,100,11,1014.43,61.4,0
"2017-11-06 23:47:42+00",6.7,7.7,,62.3,-262,140,16,1014.53,61.2,0
"2017-11-06 23:52:42+00",6.0,7.0,,62.1,-239,111,15,1014.68,60.9,0
"2017-11-06 23:57:42+00",5.8,5.8,,62.1,-233,97,11,1014.72,60.8,0
